Zurück zum Katalog

STARLINK-30785

AktivKommunikationVLEO
NORAD 58191·PAYLOAD·🇺🇸 United States

Gestartet Oct 30, 2023 von Cape Canaveral Space Force Station

Loading…

Nächste Überflüge (nächste 24 Stunden)

TLE

AktuellSource: CelesTrak SupGP

Epoche: Sep 14, 2026, 22:10 UTC

1 58191C 23167S   26257.92409722 -.00066869  00000+0 -24220-2 0  2575
2 58191  43.0007 154.8390 0001470 271.7369 117.4263 15.27610753    19

Verfolge STARLINK-30785 in Echtzeit mit AllMySat

Download on the App Store